Time,TemperatureF,DewpointF,PressureIn,WindDirection,WindDirectionDegrees,WindSpeedMPH,WindSpeedGustMPH,Humidity,HourlyPrecipIn,Conditions,Clouds,dailyrainin,SolarRadiationWatts/m^2,SoftwareType,DateUTC
2013-06-21 00:07:00,54.9,50.0,29.97,WSW,257,2.0,8.0,83,0.00,,,0.00,0,weatherlink.com 1.10,2013-06-21 07:07:00,
2013-06-21 00:22:00,54.9,50.0,29.97,West,268,5.0,7.0,83,0.00,,,0.00,0,weatherlink.com 1.10,2013-06-21 07:22:00,
2013-06-21 00:37:00,54.6,50.0,29.97,West,281,2.0,9.0,84,0.00,,,0.00,0,weatherlink.com 1.10,2013-06-21 07:37:00,
2013-06-21 00:52:00,54.4,50.0,29.96,WNW,290,1.0,7.0,84,0.00,,,0.00,0,weatherlink.com 1.10,2013-06-21 07:52:00,
2013-06-21 01:07:00,54.2,50.0,29.96,West,278,0.0,7.0,85,0.00,,,0.00,0,weatherlink.com 1.10,2013-06-21 08:07:00,
2013-06-21 01:22:00,54.1,50.0,29.96,West,273,4.0,7.0,85,0.00,,,0.00,0,weatherlink.com 1.10,2013-06-21 08:22:00,
2013-06-21 01:37:00,54.0,50.0,29.96,WNW,286,1.0,7.0,86,0.00,,,0.00,0,weatherlink.com 1.10,2013-06-21 08:37:00,
2013-06-21 01:52:00,53.9,50.0,29.96,West,271,5.0,8.0,86,0.00,,,0.00,0,weatherlink.com 1.10,2013-06-21 08:52:00,
2013-06-21 02:07:00,53.8,50.0,29.96,West,261,2.0,8.0,86,0.00,,,0.00,0,weatherlink.com 1.10,2013-06-21 09:07:00,
2013-06-21 02:22:00,53.5,50.0,29.95,West,261,3.0,8.0,87,0.00,,,0.00,0,weatherlink.com 1.10,2013-06-21 09:22:00,
2013-06-21 02:37:00,52.9,50.0,29.95,WNW,302,1.0,9.0,88,0.00,,,0.00,0,weatherlink.com 1.10,2013-06-21 09:37:00,
2013-06-21 02:52:00,52.7,50.0,29.96,West,265,1.0,7.0,89,0.00,,,0.00,0,weatherlink.com 1.10,2013-06-21 09:52:00,
2013-06-21 03:07:00,52.7,49.0,29.95,WNW,290,2.0,6.0,88,0.00,,,0.00,0,weatherlink.com 1.10,2013-06-21 10:07:00,
2013-06-21 03:22:00,52.6,50.0,29.95,West,260,1.0,7.0,89,0.00,,,0.00,0,weatherlink.com 1.10,2013-06-21 10:22:00,
2013-06-21 03:37:00,52.5,49.0,29.95,WSW,243,3.0,7.0,89,0.00,,,0.00,0,weatherlink.com 1.10,2013-06-21 10:37:00,
2013-06-21 03:53:00,52.4,49.0,29.94,West,266,0.0,7.0,89,0.00,,,0.00,0,weatherlink.com 1.10,2013-06-21 10:53:00,
2013-06-21 04:08:00,52.4,50.0,29.95,West,269,3.0,6.0,90,0.00,,,0.00,0,weatherlink.com 1.10,2013-06-21 11:08:00,
2013-06-21 04:23:00,52.3,50.0,29.95,West,276,4.0,6.0,90,0.00,,,0.00,0,weatherlink.com 1.10,2013-06-21 11:23:00,
2013-06-21 04:38:00,52.2,49.0,29.95,WSW,239,1.0,8.0,90,0.00,,,0.00,0,weatherlink.com 1.10,2013-06-21 11:38:00,
2013-06-21 04:53:00,52.3,50.0,29.94,West,277,2.0,6.0,90,0.00,,,0.00,0,weatherlink.com 1.10,2013-06-21 11:53:00,
2013-06-21 05:08:00,52.2,49.0,29.94,WSW,240,2.0,6.0,90,0.00,,,0.00,0,weatherlink.com 1.10,2013-06-21 12:08:00,
2013-06-21 05:23:00,52.2,49.0,29.95,West,264,0.0,5.0,90,0.00,,,0.00,0,weatherlink.com 1.10,2013-06-21 12:23:00,
2013-06-21 05:38:00,52.1,49.0,29.95,WSW,251,1.0,5.0,89,0.00,,,0.00,0,weatherlink.com 1.10,2013-06-21 12:38:00,
2013-06-21 05:53:00,51.5,48.0,29.95,WSW,251,1.0,4.0,89,0.00,,,0.00,7,weatherlink.com 1.10,2013-06-21 12:53:00,
2013-06-21 06:08:00,51.3,48.0,29.95,WSW,251,0.0,3.0,89,0.00,,,0.00,16,weatherlink.com 1.10,2013-06-21 13:08:00,
2013-06-21 06:23:00,52.1,49.0,29.96,WSW,251,0.0,2.0,88,0.00,,,0.00,65,weatherlink.com 1.10,2013-06-21 13:23:00,
2013-06-21 06:38:00,52.1,49.0,29.96,WSW,251,0.0,2.0,88,0.00,,,0.00,109,weatherlink.com 1.10,2013-06-21 13:38:00,
2013-06-21 06:53:00,53.0,50.0,29.96,SE,140,3.0,4.0,88,0.00,,,0.00,163,weatherlink.com 1.10,2013-06-21 13:53:00,
2013-06-21 07:08:00,53.5,50.0,29.96,South,169,4.0,5.0,87,0.00,,,0.00,216,weatherlink.com 1.10,2013-06-21 14:08:00,
2013-06-21 07:23:00,54.2,51.0,29.96,South,171,4.0,5.0,87,0.00,,,0.00,271,weatherlink.com 1.10,2013-06-21 14:23:00,
2013-06-21 07:38:00,55.7,51.0,29.97,SSE,168,4.0,6.0,83,0.00,,,0.00,320,weatherlink.com 1.10,2013-06-21 14:38:00,
2013-06-21 07:53:00,57.1,51.0,29.97,SSE,166,3.0,6.0,80,0.00,,,0.00,367,weatherlink.com 1.10,2013-06-21 14:53:00,
2013-06-21 08:08:00,58.5,52.0,29.97,SSE,153,4.0,6.0,78,0.00,,,0.00,420,weatherlink.com 1.10,2013-06-21 15:08:00,
2013-06-21 08:23:00,60.0,51.0,29.97,South,176,2.0,4.0,73,0.00,,,0.00,468,weatherlink.com 1.10,2013-06-21 15:23:00,
2013-06-21 08:38:00,61.3,51.0,29.97,South,174,2.0,4.0,69,0.00,,,0.00,520,weatherlink.com 1.10,2013-06-21 15:38:00,
2013-06-21 08:53:00,62.5,51.0,29.97,South,183,1.0,5.0,66,0.00,,,0.00,566,weatherlink.com 1.10,2013-06-21 15:53:00,
2013-06-21 09:09:00,64.5,51.0,29.97,South,182,1.0,4.0,63,0.00,,,0.00,610,weatherlink.com 1.10,2013-06-21 16:09:00,
2013-06-21 09:24:00,65.7,51.0,29.97,South,171,2.0,6.0,60,0.00,,,0.00,657,weatherlink.com 1.10,2013-06-21 16:24:00,
2013-06-21 09:39:00,67.5,51.0,29.96,South,171,0.0,3.0,56,0.00,,,0.00,698,weatherlink.com 1.10,2013-06-21 16:39:00,
2013-06-21 09:54:00,69.5,51.0,29.96,East,95,1.0,3.0,53,0.00,,,0.00,737,weatherlink.com 1.10,2013-06-21 16:54:00,
2013-06-21 10:24:00,73.0,52.0,29.96,NE,46,3.0,4.0,48,0.00,,,0.00,809,weatherlink.com 1.10,2013-06-21 17:24:00,
2013-06-21 10:39:00,73.9,50.0,29.96,North,355,3.0,6.0,43,0.00,,,0.00,837,weatherlink.com 1.10,2013-06-21 17:39:00,
2013-06-21 10:54:00,75.0,52.0,29.96,West,266,1.0,5.0,44,0.00,,,0.00,861,weatherlink.com 1.10,2013-06-21 17:54:00,
2013-06-21 11:09:00,76.2,53.0,29.96,WNW,288,5.0,7.0,44,0.00,,,0.00,891,weatherlink.com 1.10,2013-06-21 18:09:00,
2013-06-21 11:24:00,77.2,54.0,29.96,West,263,4.0,8.0,44,0.00,,,0.00,911,weatherlink.com 1.10,2013-06-21 18:24:00,
2013-06-21 11:39:00,77.6,53.0,29.96,West,279,4.0,10.0,42,0.00,,,0.00,928,weatherlink.com 1.10,2013-06-21 18:39:00,
2013-06-21 11:54:00,78.5,53.0,29.96,West,263,8.0,12.0,42,0.00,,,0.00,940,weatherlink.com 1.10,2013-06-21 18:54:00,
2013-06-21 12:09:00,78.7,53.0,29.95,West,274,8.0,9.0,41,0.00,,,0.00,1032,weatherlink.com 1.10,2013-06-21 19:09:00,
2013-06-21 12:24:00,80.1,54.0,29.95,WSW,240,8.0,10.0,40,0.00,,,0.00,967,weatherlink.com 1.10,2013-06-21 19:24:00,
2013-06-21 12:39:00,80.7,53.0,29.95,South,190,5.0,11.0,38,0.00,,,0.00,967,weatherlink.com 1.10,2013-06-21 19:39:00,
2013-06-21 12:54:00,81.4,53.0,29.95,WSW,239,7.0,10.0,38,0.00,,,0.00,963,weatherlink.com 1.10,2013-06-21 19:54:00,
2013-06-21 13:09:00,81.4,53.0,29.95,SW,226,6.0,14.0,37,0.00,,,0.00,954,weatherlink.com 1.10,2013-06-21 20:09:00,
2013-06-21 13:24:00,82.5,53.0,29.94,WSW,240,10.0,13.0,36,0.00,,,0.00,949,weatherlink.com 1.10,2013-06-21 20:24:00,
2013-06-21 13:40:00,81.8,51.0,29.94,WNW,288,6.0,14.0,34,0.00,,,0.00,940,weatherlink.com 1.10,2013-06-21 20:40:00,
2013-06-21 13:55:00,82.1,50.0,29.94,WNW,288,4.0,14.0,33,0.00,,,0.00,928,weatherlink.com 1.10,2013-06-21 20:55:00,
2013-06-21 14:10:00,81.8,48.0,29.93,West,272,5.0,16.0,31,0.00,,,0.00,914,weatherlink.com 1.10,2013-06-21 21:10:00,
2013-06-21 14:40:00,81.8,47.0,29.93,NW,315,7.0,16.0,30,0.00,,,0.00,872,weatherlink.com 1.10,2013-06-21 21:40:00,
2013-06-21 14:55:00,81.1,47.0,29.93,WNW,288,12.0,16.0,30,0.00,,,0.00,844,weatherlink.com 1.10,2013-06-21 21:55:00,
2013-06-21 15:10:00,81.0,48.0,29.93,WSW,241,10.0,14.0,32,0.00,,,0.00,812,weatherlink.com 1.10,2013-06-21 22:10:00,
2013-06-21 15:25:00,80.6,50.0,29.93,West,267,10.0,15.0,34,0.00,,,0.00,777,weatherlink.com 1.10,2013-06-21 22:25:00,
2013-06-21 15:40:00,79.9,48.0,29.93,West,272,5.0,14.0,33,0.00,,,0.00,754,weatherlink.com 1.10,2013-06-21 22:40:00,
2013-06-21 15:55:00,79.8,47.0,29.93,West,276,9.0,15.0,31,0.00,,,0.00,719,weatherlink.com 1.10,2013-06-21 22:55:00,
2013-06-21 16:10:00,78.7,44.0,29.92,West,265,6.0,15.0,29,0.00,,,0.00,670,weatherlink.com 1.10,2013-06-21 23:10:00,
2013-06-21 16:25:00,79.5,46.0,29.92,West,266,10.0,15.0,31,0.00,,,0.00,628,weatherlink.com 1.10,2013-06-21 23:25:00,
2013-06-21 16:40:00,79.2,44.0,29.92,WNW,300,16.0,16.0,29,0.00,,,0.00,594,weatherlink.com 1.10,2013-06-21 23:40:00,
2013-06-21 16:55:00,77.9,43.0,29.91,West,273,5.0,14.0,29,0.00,,,0.00,547,weatherlink.com 1.10,2013-06-21 23:55:00,
2013-06-21 17:10:00,78.2,44.0,29.91,WSW,239,4.0,15.0,30,0.00,,,0.00,497,weatherlink.com 1.10,2013-06-22 00:10:00,
2013-06-21 17:25:00,77.5,45.0,29.90,WSW,249,4.0,17.0,31,0.00,,,0.00,448,weatherlink.com 1.10,2013-06-22 00:25:00,
2013-06-21 17:40:00,76.6,50.0,29.90,NW,308,6.0,14.0,39,0.00,,,0.00,394,weatherlink.com 1.10,2013-06-22 00:40:00,
2013-06-21 17:55:00,74.7,49.0,29.90,WNW,290,9.0,12.0,41,0.00,,,0.00,346,weatherlink.com 1.10,2013-06-22 00:55:00,
2013-06-21 18:10:00,73.7,51.0,29.90,WNW,302,6.0,14.0,45,0.00,,,0.00,302,weatherlink.com 1.10,2013-06-22 01:10:00,
2013-06-21 18:25:00,73.1,52.0,29.90,SSW,206,3.0,13.0,47,0.00,,,0.00,248,weatherlink.com 1.10,2013-06-22 01:25:00,
2013-06-21 18:40:00,72.6,52.0,29.90,WSW,239,8.0,13.0,48,0.00,,,0.00,190,weatherlink.com 1.10,2013-06-22 01:40:00,
2013-06-21 18:55:00,71.4,51.0,29.90,WNW,283,6.0,14.0,49,0.00,,,0.00,130,weatherlink.com 1.10,2013-06-22 01:55:00,
2013-06-21 19:10:00,70.1,52.0,29.90,WNW,285,7.0,14.0,52,0.00,,,0.00,32,weatherlink.com 1.10,2013-06-22 02:10:00,
2013-06-21 19:25:00,68.8,51.0,29.90,WNW,289,10.0,16.0,54,0.00,,,0.00,51,weatherlink.com 1.10,2013-06-22 02:25:00,
2013-06-21 19:40:00,67.7,51.0,29.90,West,270,7.0,15.0,56,0.00,,,0.00,23,weatherlink.com 1.10,2013-06-22 02:40:00,
2013-06-21 19:55:00,66.6,51.0,29.90,West,274,9.0,14.0,58,0.00,,,0.00,19,weatherlink.com 1.10,2013-06-22 02:55:00,
2013-06-21 20:10:00,65.4,51.0,29.90,NW,311,6.0,12.0,60,0.00,,,0.00,12,weatherlink.com 1.10,2013-06-22 03:10:00,
2013-06-21 20:25:00,64.1,51.0,29.90,WNW,283,4.0,13.0,63,0.00,,,0.00,7,weatherlink.com 1.10,2013-06-22 03:25:00,
2013-06-21 20:40:00,63.1,51.0,29.90,West,265,6.0,9.0,65,0.00,,,0.00,0,weatherlink.com 1.10,2013-06-22 03:40:00,
2013-06-21 20:55:00,62.3,51.0,29.90,West,265,5.0,13.0,67,0.00,,,0.00,0,weatherlink.com 1.10,2013-06-22 03:55:00,
2013-06-21 21:10:00,61.6,51.0,29.91,WSW,244,5.0,10.0,69,0.00,,,0.00,0,weatherlink.com 1.10,2013-06-22 04:10:00,
2013-06-21 21:25:00,60.8,52.0,29.91,WSW,252,6.0,9.0,72,0.00,,,0.00,0,weatherlink.com 1.10,2013-06-22 04:25:00,
2013-06-21 21:40:00,60.1,52.0,29.91,West,279,7.0,12.0,74,0.00,,,0.00,0,weatherlink.com 1.10,2013-06-22 04:40:00,
2013-06-21 21:55:00,59.7,51.0,29.91,WSW,247,4.0,13.0,74,0.00,,,0.00,0,weatherlink.com 1.10,2013-06-22 04:55:00,
2013-06-21 22:10:00,59.3,51.0,29.92,WNW,288,4.0,10.0,75,0.00,,,0.00,0,weatherlink.com 1.10,2013-06-22 05:10:00,
2013-06-21 22:25:00,58.8,52.0,29.92,West,267,6.0,15.0,77,0.00,,,0.00,0,weatherlink.com 1.10,2013-06-22 05:25:00,
2013-06-21 22:40:00,58.5,51.0,29.92,West,263,0.0,10.0,77,0.00,,,0.00,0,weatherlink.com 1.10,2013-06-22 05:40:00,
2013-06-21 22:55:00,58.1,51.0,29.92,West,264,1.0,10.0,78,0.00,,,0.00,0,weatherlink.com 1.10,2013-06-22 05:55:00,
2013-06-21 23:10:00,58.0,52.0,29.92,WSW,240,4.0,10.0,79,0.00,,,0.00,0,weatherlink.com 1.10,2013-06-22 06:10:00,
2013-06-21 23:25:00,57.8,52.0,29.92,WSW,237,3.0,11.0,80,0.00,,,0.00,0,weatherlink.com 1.10,2013-06-22 06:25:00,
2013-06-21 23:40:00,57.6,52.0,29.92,West,273,5.0,12.0,81,0.00,,,0.00,0,weatherlink.com 1.10,2013-06-22 06:40:00,
2013-06-21 23:55:00,57.5,52.0,29.92,SSW,205,3.0,9.0,81,0.00,,,0.00,0,weatherlink.com 1.10,2013-06-22 06:55:00,